EW9248 Weather Reports


Display with metric or nautical units.
time (UTC)temp
F
wind
direction
speed
MPH
gust
MPH
rain 1hr
in
rain 24hr
in
rain mn
in
humidity
%
barometer
mb
20260905182356 72 45 2.0 4.0 0.00 0.00 0.00 71 1013.6
20260905181315 73 292 3.0 6.0 0.00 0.00 0.00 69 1013.5
20260905180355 74 67 2.0 4.0 0.00 0.00 0.00 70 1013.6
20260905175316 73 292 2.0 3.0 0.00 0.00 0.00 70 1013.7
20260905174315 74 270 2.0 7.0 0.00 0.00 0.00 69 1013.7
20260905173335 73 270 1.0 2.0 0.00 0.00 0.00 70 1013.7
20260905172315 74 292 3.0 4.0 0.00 0.00 0.00 68 1013.8
20260905171316 74 22 2.0 4.0 0.00 0.00 0.00 69 1014.0
20260905170415 73 292 3.0 4.0 0.00 0.00 0.00 71 1014.0
20260905165456 71 0.0 1.0 0.00 0.00 0.00 74 1014.0
20260905164315 72 270 1.0 2.0 0.00 0.00 0.00 72 1013.9
20260905163315 73 292 4.0 5.0 0.00 0.00 0.00 72 1014.0
20260905162356 71 315 2.0 3.0 0.00 0.00 0.00 75 1014.0
20260905161315 73 292 2.0 3.0 0.00 0.00 0.00 71 1014.1
20260905160315 70 292 1.0 4.0 0.00 0.00 0.00 75 1014.1
20260905155315 71 45 2.0 4.0 0.00 0.00 0.00 72 1014.1
20260905154335 73 292 2.0 3.0 0.00 0.00 0.00 74 1014.1
20260905153356 71 315 2.0 5.0 0.00 0.00 0.00 75 1014.2
20260905152355 71 0.0 2.0 0.00 0.00 0.00 73 1014.1
20260905151335 73 0.0 2.0 0.00 0.00 0.00 74 1014.3
20260905150336 72 22 1.0 3.0 0.00 0.00 0.00 75 1014.4
20260905145355 69 270 1.0 4.0 0.00 0.00 0.00 75 1014.2
20260905144355 70 0.0 0.0 0.00 0.00 0.00 76 1014.2
20260905143316 67 0.0 1.0 0.00 0.00 0.00 78 1014.2
20260905142315 68 0.0 2.0 0.00 0.00 0.00 78 1014.3
20260905141315 69 0.0 3.0 0.00 0.00 0.00 88 1014.4
20260905135335 64 67 1.0 3.0 0.00 0.00 0.00 93 1014.0
20260905134355 63 0.0 0.0 0.00 0.00 0.00 94 1014.1
20260905133316 63 0.0 0.0 0.00 0.00 0.00 94 1014.1
20260905132315 62 0.0 0.0 0.00 0.00 0.00 94 1014.0
20260905131356 61 0.0 0.0 0.00 0.00 0.00 94 1014.0
20260905130315 60 0.0 0.0 0.00 0.01 0.00 94 1014.0
20260905125335 60 0.0 0.0 0.00 0.01 0.00 94 1014.1
20260905124335 60 0.0 0.0 0.00 0.01 0.00 93 1014.4
20260905123316 59 0.0 0.0 0.00 0.01 0.00 93 1014.4
20260905122315 59 0.0 0.0 0.00 0.01 0.00 93 1014.6
20260905121335 58 0.0 0.0 0.00 0.01 0.00 93 1014.5
20260905120416 57 0.0 0.0 0.00 0.01 0.00 93 1014.4
20260905115335 57 0.0 0.0 0.00 0.01 0.00 93 1014.3
20260905114315 57 0.0 0.0 0.00 0.01 0.00 93 1013.7
20260905113317 57 0.0 0.0 0.00 0.01 0.00 93 1013.8
20260905112458 57 0.0 0.0 0.00 0.01 0.00 93 1013.7
20260905111317 57 0.0 0.0 0.00 0.01 0.00 93 1013.7
20260905110317 57 0.0 0.0 0.00 0.01 0.00 93 1013.7
20260905105418 57 0.0 0.0 0.00 0.01 0.00 93 1013.6
20260905104317 57 0.0 0.0 0.00 0.01 0.00 93 1013.6
20260905103337 57 0.0 0.0 0.00 0.01 0.00 93 1013.2
20260905102337 57 0.0 0.0 0.00 0.01 0.00 93 1013.3
20260905101357 57 0.0 0.0 0.00 0.01 0.00 93 1013.1
20260905100316 57 0.0 0.0 0.00 0.01 0.00 93 1013.0
20260905095337 57 0.0 0.0 0.00 0.01 0.00 93 1013.1
20260905094316 57 0.0 0.0 0.00 0.01 0.00 93 1013.0
20260905093316 57 0.0 0.0 0.00 0.01 0.00 93 1013.0
20260905092316 57 0.0 0.0 0.00 0.01 0.00 93 1013.0
20260905091417 57 0.0 0.0 0.00 0.01 0.00 93 1013.0
20260905090417 58 0.0 0.0 0.00 0.01 0.00 93 1012.9
20260905085355 58 0.0 0.0 0.00 0.01 0.00 93 1013.0
20260905084336 58 0.0 0.0 0.00 0.01 0.00 93 1013.0
20260905083316 58 0.0 0.0 0.00 0.01 0.00 93 1013.1
20260905082336 59 0.0 0.0 0.00 0.01 0.00 93 1013.1
20260905081337 59 0.0 0.0 0.00 0.01 0.00 93 1013.1
20260905080316 59 0.0 0.0 0.00 0.01 0.00 93 1013.1
20260905075336 59 0.0 0.0 0.00 0.01 0.00 93 1013.3
20260905074337 60 0.0 0.0 0.00 0.01 0.00 93 1013.2
20260905073316 60 0.0 0.0 0.00 0.01 0.00 92 1013.1
20260905071356 60 0.0 0.0 0.00 0.01 0.00 92 1013.4
20260905070417 61 0.0 0.0 0.00 0.01 0.00 92 1013.5
20260905065336 61 0.0 0.0 0.00 0.01 0.00 93 1013.6
20260905064357 61 0.0 0.0 0.00 0.01 0.00 92 1013.6
20260905063337 61 0.0 0.0 0.00 0.01 0.00 92 1013.8
20260905062316 61 0.0 0.0 0.00 0.01 0.00 92 1013.9
20260905061316 61 0.0 0.0 0.00 0.01 0.00 92 1013.9
20260905055316 62 0.0 0.0 0.00 0.01 0.00 92 1013.9
20260905054316 62 0.0 0.0 0.00 0.01 0.00 92 1013.9
20260905053316 62 0.0 0.0 0.00 0.01 0.00 92 1014.0
20260905052317 62 0.0 0.0 0.00 0.01 0.00 92 1014.0
20260905051316 62 0.0 0.0 0.00 0.01 0.00 92 1014.1
20260905050336 62 0.0 0.0 0.00 0.01 0.00 92 1014.0
20260905045356 62 0.0 0.0 0.00 0.01 0.00 92 1014.1
20260905044318 62 0.0 0.0 0.00 0.01 0.00 92 1014.2
20260905043316 62 0.0 0.0 0.00 0.01 0.00 91 1014.1
20260905042316 63 0.0 0.0 0.00 0.01 0.00 92 1014.3
20260905041456 62 0.0 0.0 0.00 0.01 0.00 91 1014.3
20260905040337 63 0.0 0.0 0.00 0.05 0.00 91 1014.2
20260905035416 63 0.0 0.0 0.00 0.11 0.05 91 1014.1
20260905034316 64 0.0 0.0 0.00 0.15 0.05 91 1014.2
20260905033337 64 0.0 0.0 0.00 0.19 0.05 91 1014.2
20260905032316 64 0.0 0.0 0.00 0.23 0.05 91 1014.1
20260905031356 65 0.0 0.0 0.00 0.25 0.05 91 1014.1
20260905030416 65 0.0 0.0 0.00 0.28 0.05 91 1014.1
20260905024336 66 0.0 0.0 0.00 0.31 0.05 90 1014.0
20260905023316 66 0.0 0.0 0.00 0.32 0.05 90 1013.8
20260905022357 66 0.0 0.0 0.00 0.32 0.05 90 1013.9
20260905021316 66 0.0 0.0 0.00 0.32 0.05 90 1013.8
20260905020336 67 0.0 0.0 0.00 0.32 0.05 90 1013.8
20260905015336 67 0.0 0.0 0.00 0.32 0.05 89 1013.9
20260905014457 67 0.0 0.0 0.00 0.32 0.05 89 1014.1
20260905013316 67 0.0 0.0 0.00 0.32 0.05 89 1014.2
20260905012317 67 0.0 0.0 0.00 0.32 0.05 89 1014.2
20260905011457 67 0.0 0.0 0.00 0.32 0.05 89 1014.1
20260905010340 67 0.0 0.0 0.00 0.32 0.05 89 1013.9
20260905005316 67 0.0 0.0 0.00 0.32 0.05 88 1013.8
20260905004336 68 0.0 0.0 0.00 0.32 0.05 88 1013.8
20260905003358 68 0.0 0.0 0.00 0.32 0.05 88 1013.6
20260905002316 68 0.0 0.0 0.00 0.32 0.05 87 1013.6
20260905001336 68 0.0 0.0 0.00 0.32 0.05 87 1013.6
20260905000318 68 0.0 0.0 0.00 0.32 0.05 86 1013.3
20260904235336 68 0.0 0.0 0.00 0.32 0.05 86 1013.2
20260904234337 68 0.0 0.0 0.00 0.32 0.05 86 1013.3
20260904233316 69 0.0 0.0 0.00 0.32 0.05 86 1013.2
20260904232316 69 0.0 0.0 0.00 0.32 0.05 85 1013.2
20260904231357 69 0.0 0.0 0.00 0.32 0.05 85 1013.3
20260904230316 70 0.0 0.0 0.00 0.32 0.05 84 1013.3
20260904225316 71 0.0 0.0 0.00 0.32 0.05 82 1013.1
20260904224316 72 0.0 0.0 0.00 0.32 0.05 79 1013.2
20260904223316 74 0.0 0.0 0.00 0.32 0.05 75 1013.3
20260904222336 75 0.0 0.0 0.00 0.32 0.05 72 1013.2
20260904221316 75 292 1.0 3.0 0.00 0.32 0.05 71 1013.2
20260904220336 75 22 3.0 5.0 0.00 0.32 0.05 70 1013.2
20260904215337 76 270 1.0 3.0 0.00 0.32 0.05 70 1013.1
20260904214316 76 292 3.0 4.0 0.00 0.32 0.05 69 1013.1
20260904213336 76 292 1.0 3.0 0.00 0.32 0.05 70 1013.2
20260904212336 76 270 2.0 3.0 0.00 0.32 0.05 70 1013.2
20260904211316 77 315 1.0 4.0 0.00 0.32 0.05 68 1013.2
20260904210316 77 0.0 1.0 0.00 0.32 0.05 71 1013.4
20260904205336 77 292 1.0 2.0 0.00 0.32 0.05 70 1013.4
20260904204316 76 0.0 1.0 0.00 0.32 0.05 71 1013.6
20260904203316 76 0.0 2.0 0.00 0.32 0.05 70 1013.5
20260904202337 77 22 1.0 2.0 0.00 0.32 0.05 70 1013.7
20260904201356 77 67 3.0 5.0 0.00 0.32 0.05 69 1013.7
20260904200318 78 0.0 1.0 0.00 0.32 0.05 70 1013.9
20260904195356 78 315 4.0 8.0 0.00 0.32 0.05 67 1014.1
20260904194315 77 0.0 2.0 0.00 0.32 0.05 68 1014.0
20260904193315 77 292 3.0 6.0 0.00 0.32 0.05 71 1014.2
20260904192315 77 45 3.0 6.0 0.00 0.32 0.05 66 1014.2
20260904191336 78 337 2.0 3.0 0.00 0.32 0.05 69 1014.4
20260904190315 78 45 4.0 7.0 0.00 0.32 0.05 68 1014.3
20260904185316 76 22 3.0 5.0 0.00 0.32 0.05 67 1014.4
20260904184335 75 247 3.0 5.0 0.00 0.32 0.05 69 1014.5
20260904183316 77 45 2.0 5.0 0.00 0.32 0.05 67 1014.6